Location: Taupo
(38.6830°S, 176.0830°E)
Time: 04:33:55
(UTC+13:00)

Cosmos 1633 - Pass Details

Date: 24 January 2019
Orbit: 464 x 484 km, 82.5° (Epoch: 20 October)

Event Time Altitude Azimuth Distance (km) Brightness Sun altitude
Rises 23:08:07 0° 198° (SSW) 2,543 7.4 -23.5°
Reaches altitude 10° 23:10:21 10° 208° (SSW) 1,659 6.3 -23.8°
Maximum altitude 23:13:36 32° 272° (W) 852 4.0 -24.1°
Enters shadow 23:13:48 31° 279° (W) 856 4.0 -24.1°
